UAL1738 KJFK-KPHL

Flight info

Callsign UAL1738
Flight time 0h 32m
Altitude 16000
Route DIXIE T224 JIIMS OOD
Aircraft B38M/M-SDE1FGHILORVWXY/HB1

Departure

Time 2026-05-07 17:24
Airport John F. Kennedy International Airport (KJFK)

Arrival

Time 2026-05-07 17:57
Airport Philadelphia International Airport (KPHL)
Time Latitude Longitude Altitude Speed Heading
2026-05-07 16:29 40.63734 -73.78177 25 ft 0 kts 81°
2026-05-07 17:11 40.63733 -73.78199 24 ft 5 kts 94°
2026-05-07 17:11 40.63737 -73.78252 25 ft 6 kts 107°
2026-05-07 17:12 40.63760 -73.78275 24 ft 0 kts 169°
2026-05-07 17:17 40.63755 -73.78274 25 ft 2 kts 170°
2026-05-07 17:18 40.63736 -73.78271 23 ft 4 kts 174°
2026-05-07 17:18 40.63693 -73.78266 22 ft 9 kts 174°
2026-05-07 17:18 40.63602 -73.78254 23 ft 16 kts 181°
2026-05-07 17:18 40.63522 -73.78279 22 ft 5 kts 152°
2026-05-07 17:19 40.63494 -73.78228 26 ft 10 kts 121°
2026-05-07 17:19 40.63445 -73.78116 24 ft 19 kts 120°
2026-05-07 17:19 40.63368 -73.77939 22 ft 25 kts 119°
2026-05-07 17:19 40.63284 -73.77749 27 ft 23 kts 121°
2026-05-07 17:20 40.63198 -73.77563 25 ft 25 kts 121°
2026-05-07 17:20 40.63109 -73.77367 22 ft 25 kts 121°
2026-05-07 17:20 40.63019 -73.77169 25 ft 24 kts 121°
2026-05-07 17:20 40.62969 -73.77074 24 ft 3 kts 154°
2026-05-07 17:21 40.62959 -73.77080 22 ft 4 kts 201°
2026-05-07 17:21 40.62915 -73.77112 22 ft 9 kts 210°
2026-05-07 17:21 40.62906 -73.77119 26 ft 1 kts 210°
2026-05-07 17:22 40.62905 -73.77120 26 ft 0 kts 210°
2026-05-07 17:22 40.62899 -73.77125 22 ft 2 kts 210°
2026-05-07 17:23 40.62855 -73.77158 25 ft 13 kts 210°
2026-05-07 17:23 40.62815 -73.77204 24 ft 2 kts 267°
2026-05-07 17:23 40.62827 -73.77234 24 ft 9 kts 299°
2026-05-07 17:23 40.62988 -73.77588 27 ft 83 kts 302°
2026-05-07 17:24 40.63392 -73.78489 46 ft 140 kts 304°
2026-05-07 17:24 40.63924 -73.79680 455 ft 156 kts 304°
2026-05-07 17:24 40.64352 -73.81035 1134 ft 168 kts 281°
2026-05-07 17:24 40.64124 -73.82542 1822 ft 174 kts 243°
2026-05-07 17:25 40.63216 -73.83675 2192 ft 182 kts 218°
2026-05-07 17:25 40.62277 -73.84737 2628 ft 179 kts 230°
2026-05-07 17:25 40.61461 -73.85997 3004 ft 183 kts 233°
2026-05-07 17:25 40.60637 -73.87343 3291 ft 195 kts 233°
2026-05-07 17:26 40.59735 -73.88789 3731 ft 213 kts 231°
2026-05-07 17:26 40.58651 -73.90215 4358 ft 225 kts 229°
2026-05-07 17:26 40.57578 -73.91736 4892 ft 229 kts 231°
2026-05-07 17:26 40.56465 -73.93286 4971 ft 242 kts 226°
2026-05-07 17:27 40.54977 -73.94614 4992 ft 269 kts 214°
2026-05-07 17:27 40.53370 -73.95896 5104 ft 271 kts 214°
2026-05-07 17:27 40.51756 -73.97203 5692 ft 273 kts 216°
2026-05-07 17:27 40.50159 -73.98512 5870 ft 269 kts 217°
2026-05-07 17:28 40.48565 -73.99820 6063 ft 272 kts 217°
2026-05-07 17:28 40.46956 -74.01131 6716 ft 272 kts 217°
2026-05-07 17:28 40.45346 -74.02441 7429 ft 271 kts 218°
2026-05-07 17:28 40.43753 -74.03738 8185 ft 268 kts 218°
2026-05-07 17:29 40.42183 -74.05017 8981 ft 263 kts 218°
2026-05-07 17:29 40.40660 -74.06257 9804 ft 259 kts 219°
2026-05-07 17:29 40.39140 -74.07493 10532 ft 256 kts 219°
2026-05-07 17:29 40.37629 -74.08724 11216 ft 255 kts 219°
2026-05-07 17:30 40.36124 -74.09948 11875 ft 255 kts 219°
2026-05-07 17:30 40.34613 -74.11175 12571 ft 255 kts 218°
2026-05-07 17:30 40.33102 -74.12402 13270 ft 256 kts 218°
2026-05-07 17:30 40.31587 -74.13632 13949 ft 256 kts 218°
2026-05-07 17:31 40.30066 -74.14865 14561 ft 258 kts 219°
2026-05-07 17:31 40.28536 -74.16106 15173 ft 260 kts 219°
2026-05-07 17:31 40.26995 -74.17355 15748 ft 262 kts 219°
2026-05-07 17:31 40.25431 -74.18594 15963 ft 265 kts 216°
2026-05-07 17:32 40.23680 -74.19475 15973 ft 274 kts 204°
2026-05-07 17:32 40.21757 -74.19820 15977 ft 286 kts 192°
2026-05-07 17:32 40.19731 -74.19548 15982 ft 301 kts 180°
2026-05-07 17:32 40.18374 -74.19122 15982 ft 303 kts 179°
2026-05-07 17:33 40.15664 -74.18251 15981 ft 303 kts 179°
2026-05-07 17:33 40.13619 -74.17607 15980 ft 301 kts 180°
2026-05-07 17:33 40.11592 -74.17311 15991 ft 285 kts 193°
2026-05-07 17:33 40.09674 -74.17638 15995 ft 272 kts 205°
2026-05-07 17:34 40.07932 -74.18486 15991 ft 263 kts 216°
2026-05-07 17:34 40.06418 -74.19749 16011 ft 256 kts 223°
2026-05-07 17:34 40.04973 -74.21112 16006 ft 257 kts 223°
2026-05-07 17:34 40.03521 -74.22464 15999 ft 256 kts 223°
2026-05-07 17:35 40.02075 -74.23815 15996 ft 256 kts 223°
2026-05-07 17:35 40.00628 -74.25171 15998 ft 256 kts 223°
2026-05-07 17:35 39.99190 -74.26534 15999 ft 256 kts 224°
2026-05-07 17:35 39.97763 -74.27906 15995 ft 255 kts 224°
2026-05-07 17:36 39.96332 -74.29277 15993 ft 255 kts 223°
2026-05-07 17:36 39.94894 -74.30648 16006 ft 262 kts 223°
2026-05-07 17:36 39.93357 -74.32125 16023 ft 288 kts 223°
2026-05-07 17:36 39.91672 -74.33736 16018 ft 313 kts 222°
2026-05-07 17:37 39.89849 -74.35465 16028 ft 336 kts 222°
2026-05-07 17:37 39.87905 -74.37309 16020 ft 352 kts 221°
2026-05-07 17:37 39.85952 -74.39151 16013 ft 343 kts 221°
2026-05-07 17:37 39.84050 -74.40956 15990 ft 342 kts 222°
2026-05-07 17:38 39.82250 -74.42935 16007 ft 336 kts 229°
2026-05-07 17:38 39.80705 -74.45209 16003 ft 334 kts 236°
2026-05-07 17:38 39.79392 -74.47688 16012 ft 332 kts 238°
2026-05-07 17:38 39.78102 -74.50180 16006 ft 333 kts 238°
2026-05-07 17:39 39.76800 -74.52673 16008 ft 332 kts 238°
2026-05-07 17:39 39.75506 -74.55158 16008 ft 332 kts 238°
2026-05-07 17:39 39.74214 -74.57648 15998 ft 333 kts 238°
2026-05-07 17:39 39.72921 -74.60136 16008 ft 332 kts 238°
2026-05-07 17:40 39.71625 -74.62623 16008 ft 333 kts 238°
2026-05-07 17:40 39.70329 -74.65106 15999 ft 332 kts 238°
2026-05-07 17:40 39.69032 -74.67594 15999 ft 333 kts 238°
2026-05-07 17:40 39.67750 -74.70049 16004 ft 332 kts 238°
2026-05-07 17:41 39.66452 -74.72533 15995 ft 333 kts 238°
2026-05-07 17:41 39.65152 -74.75020 15995 ft 332 kts 238°
2026-05-07 17:41 39.63890 -74.77427 15990 ft 312 kts 238°
2026-05-07 17:41 39.62699 -74.79699 15981 ft 301 kts 238°
2026-05-07 17:42 39.61529 -74.81938 15983 ft 299 kts 238°
2026-05-07 17:42 39.60362 -74.84167 15980 ft 298 kts 238°
2026-05-07 17:42 39.59194 -74.86392 15979 ft 298 kts 238°
2026-05-07 17:42 39.58026 -74.88615 15962 ft 298 kts 238°
2026-05-07 17:43 39.56857 -74.90844 15572 ft 296 kts 239°
2026-05-07 17:43 39.55905 -74.93154 15183 ft 283 kts 248°
2026-05-07 17:43 39.55336 -74.95486 14788 ft 262 kts 256°
2026-05-07 17:43 39.55093 -74.97753 14387 ft 248 kts 263°
2026-05-07 17:44 39.55129 -74.99947 13996 ft 240 kts 271°
2026-05-07 17:44 39.55412 -75.02036 13596 ft 240 kts 278°
2026-05-07 17:44 39.55961 -75.04154 13044 ft 245 kts 284°
2026-05-07 17:44 39.56566 -75.06192 12528 ft 242 kts 283°
2026-05-07 17:45 39.57146 -75.08179 12002 ft 231 kts 283°
2026-05-07 17:45 39.57714 -75.10123 11520 ft 232 kts 283°
2026-05-07 17:45 39.58288 -75.12097 11163 ft 234 kts 284°
2026-05-07 17:45 39.58867 -75.14074 10803 ft 236 kts 284°
2026-05-07 17:46 39.59452 -75.16066 10448 ft 236 kts 284°
2026-05-07 17:46 39.60025 -75.18014 10083 ft 227 kts 284°
2026-05-07 17:46 39.60576 -75.19889 9599 ft 218 kts 284°
2026-05-07 17:46 39.61100 -75.21687 9041 ft 212 kts 285°
2026-05-07 17:47 39.61626 -75.23508 8583 ft 219 kts 286°
2026-05-07 17:47 39.62174 -75.25396 8110 ft 227 kts 287°
2026-05-07 17:47 39.62740 -75.27331 7806 ft 228 kts 288°
2026-05-07 17:47 39.63291 -75.29209 7800 ft 218 kts 288°
2026-05-07 17:48 39.64018 -75.30917 7813 ft 222 kts 303°
2026-05-07 17:48 39.65030 -75.32465 7598 ft 228 kts 306°
2026-05-07 17:48 39.66038 -75.33985 7141 ft 218 kts 306°
2026-05-07 17:48 39.67008 -75.35459 6697 ft 210 kts 307°
2026-05-07 17:49 39.67942 -75.36880 6243 ft 204 kts 308°
2026-05-07 17:49 39.68855 -75.38270 5795 ft 206 kts 309°
2026-05-07 17:49 39.69802 -75.39713 5364 ft 211 kts 310°
2026-05-07 17:49 39.70753 -75.41160 4979 ft 210 kts 311°
2026-05-07 17:50 39.71714 -75.42621 4601 ft 219 kts 311°
2026-05-07 17:50 39.72763 -75.44216 4144 ft 239 kts 311°
2026-05-07 17:50 39.73841 -75.45861 4023 ft 236 kts 311°
2026-05-07 17:50 39.74888 -75.47459 4007 ft 227 kts 311°
2026-05-07 17:51 39.75890 -75.48986 4008 ft 219 kts 311°
2026-05-07 17:51 39.76876 -75.50491 4007 ft 218 kts 311°
2026-05-07 17:51 39.77878 -75.51911 4027 ft 201 kts 324°
2026-05-07 17:51 39.79117 -75.52360 4031 ft 185 kts 359°
2026-05-07 17:52 39.79974 -75.52184 3892 ft 190 kts 18°
2026-05-07 17:52 39.81030 -75.51290 3630 ft 178 kts 45°
2026-05-07 17:52 39.81638 -75.49896 3376 ft 178 kts 72°
2026-05-07 17:52 39.81995 -75.47946 3016 ft 156 kts 75°
2026-05-07 17:53 39.82170 -75.47027 3013 ft 156 kts 74°
2026-05-07 17:53 39.82442 -75.45662 3001 ft 160 kts 73°
2026-05-07 17:53 39.82737 -75.44201 3010 ft 174 kts 73°
2026-05-07 17:53 39.83047 -75.42661 2997 ft 175 kts 74°
2026-05-07 17:54 39.83348 -75.41157 2598 ft 163 kts 73°
2026-05-07 17:54 39.83622 -75.39785 2159 ft 156 kts 72°
2026-05-07 17:54 39.83891 -75.38452 1822 ft 149 kts 73°
2026-05-07 17:54 39.84155 -75.37141 1815 ft 152 kts 73°
2026-05-07 17:55 39.84424 -75.35789 1659 ft 155 kts 75°
2026-05-07 17:55 39.84680 -75.34449 1317 ft 150 kts 72°
2026-05-07 17:55 39.84976 -75.33144 1040 ft 152 kts 73°
2026-05-07 17:55 39.85220 -75.31831 721 ft 145 kts 73°
2026-05-07 17:56 39.85469 -75.30552 611 ft 145 kts 75°
2026-05-07 17:56 39.85714 -75.29295 433 ft 140 kts 70°
2026-05-07 17:56 39.85959 -75.28098 227 ft 134 kts 67°
2026-05-07 17:56 39.86180 -75.27012 33 ft 111 kts 75°
2026-05-07 17:57 39.86332 -75.26273 19 ft 57 kts 75°
2026-05-07 17:57 39.86416 -75.25838 17 ft 42 kts 75°
2026-05-07 17:57 39.86466 -75.25579 19 ft 9 kts 77°
2026-05-07 17:57 39.86464 -75.25565 19 ft 1 kts 131°
2026-05-07 17:58 39.86445 -75.25570 21 ft 5 kts 207°